GW0126 Weather Reports


time (UTC)temp
C
wind
direction
speed
KPH
gust
KPH
rain 1hr
cm
rain 24hr
cm
rain mn
cm
humidity
%
barometer
mb
20260507172157 10 186 0.0 0.0 0.00 0.00 0.00 81 1016.6
20260507170117 11 186 0.0 0.0 0.00 0.00 0.00 81 1016.0
20260507165607 11 187 0.0 0.0 0.00 0.00 0.00 82 1016.3
20260507164626 11 186 0.0 1.6 0.00 0.00 0.00 81 1016.1
20260507164118 11 185 0.0 1.6 0.00 0.00 0.00 81 1016.1
20260507163527 11 185 0.0 0.0 0.00 0.00 0.00 80 1016.2
20260507163021 11 186 0.0 1.6 0.00 0.00 0.00 81 1016.0
20260507162507 11 198 1.6 1.6 0.00 0.00 0.00 80 1015.9
20260507161957 11 213 0.0 1.6 0.00 0.00 0.00 79 1016.2
20260507160937 11 206 0.0 1.6 0.00 0.00 0.00 79 1016.0
20260507155958 11 196 1.6 1.6 0.00 0.00 0.00 79 1016.0
20260507154900 11 201 1.6 3.2 0.00 0.00 0.00 78 1016.0
20260507154347 11 201 0.0 1.6 0.00 0.00 0.00 78 1016.2
20260507153405 11 169 0.0 3.2 0.00 0.00 0.00 76 1015.8
20260507152820 11 202 1.6 3.2 0.00 0.00 0.00 76 1015.6
20260507152307 11 184 0.0 1.6 0.00 0.00 0.00 75 1015.8
20260507151836 11 176 1.6 1.6 0.00 0.00 0.00 74 1015.8
20260507150815 12 254 1.6 1.6 0.00 0.00 0.00 71 1015.6
20260507145207 11 256 0.0 1.6 0.00 0.00 0.00 72 1015.4
20260507144657 12 255 1.6 3.2 0.00 0.00 0.00 70 1015.2
20260507144147 12 273 3.2 4.8 0.00 0.00 0.00 72 1015.3
20260507143719 12 172 1.6 1.6 0.00 0.00 0.00 72 1015.2
20260507142617 11 260 1.6 1.6 0.00 0.00 0.00 74 1015.4
20260507141047 12 228 0.0 1.6 0.00 0.00 0.00 72 1015.3
20260507135517 11 245 1.6 3.2 0.00 0.00 0.00 73 1015.3
20260507135010 11 209 1.6 1.6 0.00 0.00 0.00 74 1015.2
20260507133947 11 252 0.0 1.6 0.00 0.00 0.00 75 1015.2
20260507133050 11 246 0.0 3.2 0.00 0.00 0.00 75 1015.2
20260507132417 11 222 0.0 1.6 0.00 0.00 0.00 74 1015.1
20260507131357 11 236 1.6 3.2 0.00 0.00 0.00 74 1015.1
20260507125827 11 154 4.8 12.9 0.00 0.00 0.00 74 1015.0
20260507124807 11 196 0.0 1.6 0.00 0.00 0.00 74 1014.9
20260507123746 11 227 1.6 3.2 0.00 0.00 0.00 73 1014.8
20260507123237 11 246 0.0 1.6 0.00 0.00 0.00 74 1014.8
20260507122726 11 211 0.0 0.0 0.00 0.00 0.00 75 1014.6
20260507122339 11 228 1.6 1.6 0.00 0.00 0.00 74 1014.9
20260507121709 11 228 1.6 1.6 0.00 0.00 0.00 74 1014.8
20260507121156 11 216 1.6 3.2 0.00 0.00 0.00 74 1015.1
20260507115158 11 222 1.6 3.2 0.00 0.00 0.00 75 1014.9
20260507114606 11 220 0.0 1.6 0.00 0.00 0.00 76 1014.8
20260507113037 10 264 3.2 4.8 0.00 0.00 0.00 76 1014.8
20260507112016 10 242 0.0 4.8 0.00 0.00 0.00 77 1014.8
20260507111547 10 264 3.2 4.8 0.00 0.00 0.00 77 1014.8
20260507110956 10 236 0.0 3.2 0.00 0.00 0.00 77 1014.6
20260507110446 10 240 1.6 4.8 0.00 0.00 0.00 77 1014.9
20260507105936 10 243 3.2 4.8 0.00 0.00 0.00 78 1014.7
20260507105505 10 16 3.2 6.4 0.00 0.00 0.00 79 1014.8
20260507104406 10 217 1.6 3.2 0.00 0.00 0.00 80 1014.8
20260507103856 9 229 1.6 3.2 0.00 0.00 0.00 81 1014.8
20260507103346 9 189 1.6 3.2 0.00 0.00 0.00 81 1014.7
20260507102326 9 248 1.6 1.6 0.00 0.00 0.00 81 1014.6
20260507100756 9 230 1.6 3.2 0.00 0.00 0.00 82 1014.4
20260507100324 8 238 0.0 3.2 0.00 0.00 0.00 84 1014.4
20260507095736 8 204 0.0 3.2 0.00 0.00 0.00 84 1014.4
20260507094332 8 169 1.6 1.6 0.00 0.00 0.00 86 1014.3
20260507093656 8 329 4.8 6.4 0.00 0.00 0.00 86 1014.3
20260507093146 8 233 0.0 1.6 0.00 0.00 0.00 87 1014.1
20260507092126 8 247 1.6 3.2 0.00 0.00 0.00 88 1014.0
20260507091616 8 242 3.2 3.2 0.00 0.00 0.00 88 1013.9
20260507091144 8 224 0.0 1.6 0.00 0.00 0.00 89 1013.9
20260507090556 7 206 0.0 1.6 0.00 0.00 0.00 89 1013.8
20260507090046 7 269 1.6 3.2 0.00 0.00 0.00 90 1013.9
20260507085536 7 233 1.6 9.7 0.00 0.00 0.00 90 1013.7
20260507085026 7 1 1.6 3.2 0.00 0.00 0.00 90 1013.6
20260507084516 8 234 1.6 1.6 0.00 0.00 0.00 90 1013.6
20260507081926 8 251 3.2 3.2 0.00 0.00 0.00 87 1013.1
20260507081420 8 270 3.2 3.2 0.00 0.00 0.00 86 1013.3
20260507080944 8 243 0.0 3.2 0.00 0.00 0.00 85 1013.1
20260507080435 8 236 0.0 1.6 0.00 0.00 0.00 85 1013.1
20260507080008 8 234 0.0 3.2 0.00 0.00 0.00 85 1013.0
20260507075336 8 240 1.6 4.8 0.00 0.00 0.00 85 1012.9
20260507074825 8 255 1.6 4.8 0.00 0.00 0.00 85 1013.1
20260507074316 8 204 0.0 3.2 0.00 0.00 0.00 86 1013.0
20260507073805 8 300 1.6 4.8 0.00 0.00 0.00 85 1012.9
20260507073255 8 250 1.6 3.2 0.00 0.00 0.00 86 1012.6
20260507072746 8 182 1.6 3.2 0.00 0.00 0.00 87 1012.8
20260507072314 8 227 1.6 1.6 0.00 0.00 0.00 87 1013.0
20260507071725 7 280 0.0 3.2 0.00 0.00 0.00 87 1012.7
20260507070155 7 227 0.0 3.2 0.00 0.00 0.00 87 1012.5
20260507065724 7 244 1.6 3.2 0.00 0.00 0.00 87 1012.5
20260507065136 7 242 1.6 3.2 0.00 0.00 0.00 87 1012.6
20260507064625 7 219 0.0 3.2 0.00 0.00 0.00 87 1012.5
20260507064238 7 219 1.6 3.2 0.00 0.00 0.00 87 1012.5
20260507063605 7 185 3.2 4.8 0.00 0.00 0.00 87 1012.4
20260507063055 7 202 0.0 1.6 0.00 0.00 0.00 87 1012.5
20260507062545 7 226 1.6 3.2 0.00 0.00 0.00 87 1012.2
20260507062113 7 232 0.0 1.6 0.00 0.00 0.00 87 1012.0
20260507061525 7 232 1.6 1.6 0.00 0.00 0.00 88 1012.0
20260507061015 7 226 0.0 1.6 0.00 0.00 0.00 88 1011.9
20260507060034 7 242 1.6 1.6 0.00 0.00 0.00 88 1012.0
20260507054504 7 252 1.6 1.6 0.00 0.00 0.00 89 1011.9
20260507053915 7 227 0.0 3.2 0.00 0.00 0.00 90 1011.8
20260507053447 7 220 0.0 1.6 0.00 0.00 0.00 90 1011.8
20260507052855 7 227 1.6 1.6 0.00 0.00 0.00 90 1011.7
20260507052345 7 243 1.6 3.2 0.00 0.00 0.00 90 1011.6
20260507051835 7 229 0.0 0.0 0.00 0.00 0.00 89 1011.2
20260507051325 7 244 3.2 3.2 0.00 0.00 0.00 89 1011.3
20260507050815 7 220 0.0 0.0 0.00 0.00 0.00 89 1011.6
20260507050305 7 237 0.0 3.2 0.00 0.00 0.00 89 1011.6
20260507045755 7 226 0.0 1.6 0.00 0.00 0.00 89 1011.3
20260507044225 7 199 0.0 1.6 0.00 0.00 0.00 90 1011.3
20260507043715 7 238 0.0 1.6 0.00 0.00 0.00 89 1011.3
20260507043205 7 233 0.0 1.6 0.00 0.00 0.00 89 1011.4
20260507042734 7 233 0.0 1.6 0.00 0.00 0.00 89 1011.4
20260507042145 7 227 0.0 1.6 0.00 0.00 0.00 89 1011.3
20260507041635 7 224 0.0 3.2 0.00 0.00 0.00 89 1011.1
20260507041125 7 226 1.6 4.8 0.00 0.00 0.00 89 1011.0
20260507040143 7 233 1.6 3.2 0.00 0.00 0.00 90 1011.1
20260507035636 7 250 1.6 4.8 0.00 0.00 0.00 90 1011.0
20260507034616 7 197 0.0 1.6 0.00 0.00 0.00 91 1010.9
20260507034025 7 236 1.6 1.6 0.00 0.00 0.00 91 1011.0
20260507033515 7 209 0.0 3.2 0.00 0.00 0.00 91 1010.7
20260507033005 7 242 0.0 1.6 0.00 0.00 0.00 91 1010.7
20260507032458 7 221 0.0 1.6 0.00 0.00 0.00 91 1010.6
20260507031435 7 243 1.6 1.6 0.00 0.00 0.00 91 1010.6
20260507030415 7 222 0.0 1.6 0.00 0.00 0.00 91 1010.7
20260507025905 7 236 3.2 3.2 0.00 0.00 0.00 91 1010.7
20260507025355 7 233 0.0 3.2 0.00 0.00 0.00 91 1010.5
20260507023828 7 214 0.0 3.2 0.00 0.00 0.00 91 1010.6
20260507023353 7 192 1.6 3.2 0.00 0.00 0.00 92 1010.5
20260507022255 7 235 0.0 1.6 0.00 0.00 0.00 92 1010.6
20260507021823 7 233 0.0 3.2 0.00 0.00 0.00 92 1010.4
20260507021313 7 230 1.6 3.2 0.00 0.00 0.00 92 1010.3
20260507020725 7 235 0.0 3.2 0.00 0.00 0.00 92 1010.5
20260507013624 7 212 0.0 3.2 0.00 0.00 0.00 92 1010.7
20260507013115 7 231 0.0 0.0 0.00 0.00 0.00 92 1010.5
20260507012133 7 241 1.6 6.4 0.00 0.00 0.00 92 1010.2
20260507011545 7 248 1.6 1.6 0.00 0.00 0.00 92 1010.4
20260507010524 7 221 0.0 3.2 0.00 0.00 0.00 92 1010.3
20260507004447 7 232 0.0 6.4 0.00 0.00 0.00 92 1009.9
20260507004012 6 238 1.6 4.8 0.00 0.00 0.00 92 1009.8
20260507002915 7 233 0.0 4.8 0.00 0.00 0.00 92 1009.6
20260507001854 7 213 0.0 0.0 0.00 0.00 0.00 92 1009.7
20260507000324 7 233 0.0 1.6 0.00 0.00 0.00 92 1009.6
20260506235814 7 249 1.6 3.2 0.00 0.00 0.00 91 1009.8
20260506235343 7 223 1.6 1.6 0.00 0.00 0.00 91 1009.9
20260506234757 7 228 0.0 1.6 0.00 0.00 0.00 92 1009.8
20260506234244 7 218 1.6 1.6 0.00 0.00 0.00 92 1009.8
20260506233734 7 257 1.6 4.8 0.00 0.00 0.00 91 1009.9
20260506233224 7 244 1.6 3.2 0.00 0.00 0.00 92 1009.9
20260506232714 7 221 0.0 1.6 0.00 0.00 0.00 92 1009.7
20260506231654 7 229 1.6 6.4 0.00 0.00 0.00 92 1009.8
20260506230635 7 233 0.0 6.4 0.00 0.00 0.00 92 1009.6
20260506225614 7 248 0.0 1.6 0.00 0.00 0.00 94 1009.7
20260506224554 7 237 1.6 3.2 0.00 0.00 0.00 94 1009.4
20260506224044 7 296 1.6 4.8 0.00 0.00 0.00 93 1009.4
20260506222552 8 276 1.6 3.2 0.00 0.00 0.00 93 1009.3
20260506222004 8 241 3.2 4.8 0.00 0.00 0.00 93 1009.4
20260506221454 8 310 3.2 4.8 0.00 0.00 0.00 92 1009.4
20260506220944 8 276 3.2 3.2 0.00 0.00 0.00 92 1009.1
20260506220434 8 223 0.0 6.4 0.00 0.00 0.00 93 1009.1
20260506215924 8 235 1.6 1.6 0.00 0.00 2.87 93 1009.1
20260506214904 9 241 0.0 3.2 0.00 0.00 2.87 93 1009.1
20260506213334 9 261 1.6 1.6 0.00 0.00 2.87 94 1008.9
20260506212827 9 228 0.0 3.2 0.00 0.00 2.87 94 1008.8
20260506211804 9 284 3.2 3.2 0.00 0.00 2.87 94 1008.9
20260506211254 10 227 0.0 1.6 0.00 0.00 2.87 94 1008.9
20260506210744 10 229 0.0 1.6 0.00 0.00 2.87 94 1008.7
20260506205727 10 230 0.0 1.6 0.00 0.00 2.87 94 1008.8
20260506204154 10 213 0.0 1.6 0.00 0.00 2.87 95 1008.8
20260506203647 10 238 1.6 4.8 0.00 0.00 2.87 95 1008.8
20260506202624 10 231 0.0 3.2 0.00 0.00 2.87 94 1008.7
20260506201726 10 238 0.0 3.2 0.00 0.00 2.87 94 1008.7
20260506201132 10 244 0.0 1.6 0.00 0.00 2.87 94 1008.6
20260506200544 10 218 0.0 1.6 0.00 0.00 2.87 94 1008.7
20260506195524 10 230 0.0 1.6 0.00 0.00 2.87 95 1008.7
20260506195014 10 255 1.6 3.2 0.00 0.00 2.87 95 1008.4
20260506194504 10 229 0.0 1.6 0.00 0.00 2.87 95 1008.4
20260506193444 10 231 0.0 0.0 0.00 0.00 2.87 95 1008.4
20260506192934 10 233 0.0 0.0 0.00 0.00 2.87 95 1008.2
20260506192423 10 238 0.0 1.6 0.00 0.00 2.87 95 1008.4
20260506191914 10 223 0.0 0.0 0.00 0.00 2.87 95 1008.6
20260506191442 10 229 0.0 0.0 0.00 0.00 2.87 95 1008.3
20260506190854 10 228 0.0 0.0 0.00 0.00 2.87 95 1008.4
20260506190422 10 250 1.6 1.6 0.00 0.00 2.87 95 1008.3
20260506185915 10 245 0.0 1.6 0.00 0.00 2.87 95 1008.0
20260506184814 10 240 1.6 4.8 0.00 0.00 2.87 94 1007.8
20260506183754 10 244 0.0 1.6 0.00 0.00 2.87 94 1007.8
20260506182224 10 247 1.6 1.6 0.00 0.00 2.87 94 1007.8
20260506181752 10 253 1.6 3.2 0.00 0.00 2.87 94 1007.8
20260506181203 10 238 0.0 1.6 0.00 0.00 2.87 94 1007.6
20260506180143 10 242 1.6 3.2 0.00 0.00 2.87 93 1007.6
20260506175633 11 234 0.0 1.6 0.00 0.00 2.87 93 1007.5
20260506174103 11 220 0.0 1.6 0.00 0.00 2.87 94 1007.3
20260506172612 11 199 1.6 3.2 0.00 0.00 2.87 94 1007.6